When you browse on this site, cookies collect data to enhance your experience and personalize the content and advertising you see.
Visit our Privacy Policy to learn more. By continuing to use the site, you agree to this use of cookies and data.
  • In Deutschland
  • Länderverzeichnis
  • Für 7 Tage
  • Wassertemperatur
  • Satellitenkarten
  • Wetterkarte
  • Widgets
  • user-avatar
    Anmelden

    Stündliche Wetter Tahancha

    Heute, 18 Februar, Montag

    Zeit Temperatur Niederschläge Wind Luftdruck Luftfeuchtigkeit
    00:00 0°C° 0 mm 4 m/S 750 mmHg 90%
    01:00 -1°C° 0 mm 4 m/S 751 mmHg 91%
    02:00 -1°C° 0 mm 4 m/S 751 mmHg 92%
    03:00 -2°C° 0 mm 4 m/S 751 mmHg 92%
    04:00 -2°C° 0 mm 4 m/S 751 mmHg 93%
    05:00 -2°C° 0 mm 4 m/S 751 mmHg 93%
    06:00 -3°C° 0 mm 4 m/S 752 mmHg 93%
    07:00 -2°C° 0 mm 3 m/S 752 mmHg 93%
    08:00 -3°C° 0 mm 4 m/S 753 mmHg 92%
    09:00 -2°C° 0 mm 4 m/S 753 mmHg 89%
    10:00 -1°C° 0 mm 4 m/S 753 mmHg 85%
    11:00 -1°C° 0 mm 4 m/S 753 mmHg 81%
    12:00 0°C° 0 mm 4 m/S 754 mmHg 78%
    13:00 0°C° 0 mm 4 m/S 754 mmHg 75%
    14:00 +1°C° 0 mm 3 m/S 754 mmHg 72%
    15:00 0°C° 0 mm 3 m/S 754 mmHg 75%
    16:00 +1°C° 0 mm 2 m/S 754 mmHg 79%
    17:00 -1°C° 0 mm 2 m/S 754 mmHg 82%
    18:00 -2°C° 0 mm 2 m/S 754 mmHg 83%
    19:00 0°C° 0 mm 1 m/S 755 mmHg 85%
    20:00 -1°C° 0 mm 1 m/S 755 mmHg 86%
    21:00 -1°C° 0 mm 1 m/S 755 mmHg 86%
    22:00 -1°C° 0 mm 1 m/S 756 mmHg 86%
    23:00 -1°C° 0 mm 1 m/S 756 mmHg 86%

    Morgen, 19 Februar, Dienstag

    Zeit Temperatur Niederschläge Wind Luftdruck Luftfeuchtigkeit
    00:00 -2°C° 0 mm 1 m/S 756 mmHg 87%
    01:00 -2°C° 0 mm 1 m/S 756 mmHg 87%
    02:00 -2°C° 0 mm 1 m/S 756 mmHg 87%
    03:00 -2°C° 0 mm 1 m/S 756 mmHg 88%
    04:00 -2°C° 0 mm 1 m/S 756 mmHg 88%
    05:00 -2°C° 0 mm 1 m/S 756 mmHg 88%
    06:00 -4°C° 0 mm 2 m/S 756 mmHg 87%
    07:00 -4°C° 0 mm 2 m/S 756 mmHg 86%
    08:00 -4°C° 0 mm 2 m/S 756 mmHg 84%
    09:00 -4°C° 0 mm 3 m/S 756 mmHg 79%
    10:00 -1°C° 0 mm 3 m/S 756 mmHg 74%
    11:00 -1°C° 0 mm 4 m/S 756 mmHg 68%
    12:00 -1°C° 0 mm 4 m/S 756 mmHg 67%
    13:00 0°C° 0 mm 4 m/S 755 mmHg 65%
    14:00 0°C° 0 mm 4 m/S 755 mmHg 64%
    15:00 0°C° 0 mm 4 m/S 754 mmHg 68%
    16:00 -1°C° 0 mm 4 m/S 754 mmHg 72%
    17:00 0°C° 0 mm 3 m/S 753 mmHg 75%
    18:00 -2°C° 0 mm 4 m/S 753 mmHg 75%
    19:00 -2°C° 0 mm 4 m/S 753 mmHg 74%
    20:00 -2°C° 0 mm 4 m/S 753 mmHg 73%
    21:00 -2°C° 0 mm 5 m/S 752 mmHg 73%
    22:00 -2°C° 0 mm 5 m/S 752 mmHg 74%
    23:00 -2°C° 0 mm 5 m/S 751 mmHg 74%

    übermorgen, 20 Februar, Mittwoch

    Zeit Temperatur Niederschläge Wind Luftdruck Luftfeuchtigkeit
    00:00 -2°C° 0 mm 5 m/S 751 mmHg 78%
    01:00 -2°C° 0 mm 5 m/S 751 mmHg 82%
    02:00 -2°C° 0 mm 5 m/S 750 mmHg 86%
    03:00 -2°C° 0 mm 5 m/S 750 mmHg 88%
    04:00 -2°C° 0 mm 5 m/S 749 mmHg 90%
    05:00 -2°C° 0 mm 5 m/S 749 mmHg 91%
    06:00 -1°C° 0 mm 5 m/S 749 mmHg 91%
    07:00 -1°C° 0 mm 5 m/S 748 mmHg 91%
    08:00 0°C° 0 mm 5 m/S 748 mmHg 91%
    09:00 +1°C° 0 mm 5 m/S 748 mmHg 88%
    10:00 +1°C° 0 mm 5 m/S 748 mmHg 85%
    11:00 +2°C° 0 mm 5 m/S 748 mmHg 82%
    12:00 +3°C° 0 mm 5 m/S 747 mmHg 81%
    13:00 +5°C° 0 mm 5 m/S 747 mmHg 80%
    14:00 +6°C° 0 mm 5 m/S 747 mmHg 78%
    15:00 +4°C° 0.2 mm 4 m/S 747 mmHg 83%
    16:00 +3°C° 0.2 mm 4 m/S 747 mmHg 87%
    17:00 +2°C° 0.2 mm 3 m/S 747 mmHg 92%
    18:00 +2°C° 0 mm 3 m/S 747 mmHg 91%
    19:00 0°C° 0 mm 4 m/S 748 mmHg 90%
    20:00 0°C° 0 mm 4 m/S 748 mmHg 89%
    21:00 0°C° 0 mm 4 m/S 748 mmHg 89%
    22:00 -1°C° 0 mm 4 m/S 748 mmHg 89%
    23:00 -1°C° 0 mm 4 m/S 749 mmHg 89%

    21 Februar, Donnerstag

    Zeit Temperatur Niederschläge Wind Luftdruck Luftfeuchtigkeit
    00:00 -1°C° 0 mm 4 m/S 749 mmHg 88%
    01:00 -1°C° 0 mm 4 m/S 749 mmHg 88%
    02:00 -1°C° 0 mm 4 m/S 749 mmHg 87%
    03:00 -1°C° 0 mm 5 m/S 749 mmHg 86%
    04:00 -1°C° 0 mm 5 m/S 749 mmHg 86%
    05:00 -1°C° 0 mm 5 m/S 748 mmHg 85%
    06:00 -1°C° 0 mm 5 m/S 749 mmHg 86%
    07:00 -1°C° 0 mm 5 m/S 749 mmHg 86%
    08:00 -1°C° 0 mm 5 m/S 749 mmHg 86%
    09:00 -1°C° 0 mm 6 m/S 749 mmHg 81%
    10:00 +1°C° 0 mm 6 m/S 749 mmHg 75%
    11:00 +2°C° 0 mm 7 m/S 749 mmHg 70%
    12:00 +3°C° 0 mm 6 m/S 749 mmHg 70%
    13:00 +3°C° 0 mm 6 m/S 749 mmHg 70%
    14:00 +3°C° 0 mm 6 m/S 749 mmHg 70%
    15:00 +3°C° 0 mm 5 m/S 749 mmHg 73%
    16:00 +3°C° 0 mm 5 m/S 749 mmHg 77%
    17:00 +3°C° 0 mm 4 m/S 749 mmHg 80%
    18:00 +3°C° 0.1 mm 3 m/S 749 mmHg 84%
    19:00 +3°C° 0.1 mm 3 m/S 749 mmHg 88%
    20:00 +3°C° 0.1 mm 2 m/S 749 mmHg 92%
    21:00 +3°C° 0.2 mm 2 m/S 749 mmHg 93%
    22:00 +3°C° 0.2 mm 2 m/S 750 mmHg 94%
    23:00 +3°C° 0.2 mm 2 m/S 750 mmHg 95%

    22 Februar, Freitag

    Zeit Temperatur Niederschläge Wind Luftdruck Luftfeuchtigkeit
    00:00 +1°C° 0.2 mm 3 m/S 750 mmHg 94%
    01:00 0°C° 0.2 mm 3 m/S 750 mmHg 92%
    02:00 -2°C° 0.2 mm 4 m/S 750 mmHg 90%
    03:00 -2°C° 0.3 mm 4 m/S 750 mmHg 90%
    04:00 -4°C° 0.3 mm 5 m/S 750 mmHg 89%
    05:00 -5°C° 0.3 mm 5 m/S 750 mmHg 89%
    06:00 -5°C° 0.3 mm 5 m/S 751 mmHg 86%
    07:00 -6°C° 0.3 mm 6 m/S 751 mmHg 84%
    08:00 -6°C° 0.3 mm 6 m/S 752 mmHg 81%
    09:00 -6°C° 0.1 mm 6 m/S 753 mmHg 78%
    10:00 -7°C° 0.1 mm 7 m/S 754 mmHg 74%
    11:00 -7°C° 0.1 mm 7 m/S 755 mmHg 70%
    12:00 -7°C° 0 mm 7 m/S 755 mmHg 68%
    13:00 -7°C° 0 mm 8 m/S 756 mmHg 66%
    14:00 -8°C° 0 mm 8 m/S 756 mmHg 64%
    15:00 -8°C° 0 mm 8 m/S 757 mmHg 63%
    16:00 -8°C° 0 mm 7 m/S 757 mmHg 61%
    17:00 -9°C° 0 mm 7 m/S 758 mmHg 60%
    18:00 -9°C° 0 mm 7 m/S 759 mmHg 61%
    19:00 -9°C° 0 mm 6 m/S 759 mmHg 62%
    20:00 -9°C° 0 mm 6 m/S 760 mmHg 64%
    21:00 -9°C° 0 mm 6 m/S 761 mmHg 65%
    22:00 -9°C° 0 mm 7 m/S 761 mmHg 65%
    23:00 -8°C° 0 mm 7 m/S 762 mmHg 66%

    23 Februar, Samstag

    Zeit Temperatur Niederschläge Wind Luftdruck Luftfeuchtigkeit
    00:00 -9°C° 0 mm 6 m/S 762 mmHg 66%
    01:00 -9°C° 0 mm 6 m/S 762 mmHg 66%
    02:00 -8°C° 0 mm 5 m/S 762 mmHg 66%
    03:00 -8°C° 0 mm 5 m/S 762 mmHg 65%
    04:00 -8°C° 0 mm 5 m/S 762 mmHg 65%
    05:00 -8°C° 0 mm 5 m/S 762 mmHg 65%
    06:00 -10°C° 0 mm 5 m/S 762 mmHg 65%
    07:00 -10°C° 0 mm 5 m/S 762 mmHg 65%
    08:00 -10°C° 0 mm 5 m/S 762 mmHg 66%
    09:00 -8°C° 0 mm 5 m/S 762 mmHg 63%
    10:00 -7°C° 0 mm 5 m/S 762 mmHg 60%
    11:00 -7°C° 0 mm 5 m/S 762 mmHg 56%
    12:00 -5°C° 0 mm 4 m/S 762 mmHg 54%
    13:00 -5°C° 0 mm 4 m/S 761 mmHg 52%
    14:00 -5°C° 0 mm 4 m/S 760 mmHg 50%
    15:00 -5°C° 0 mm 3 m/S 760 mmHg 51%
    16:00 -5°C° 0 mm 3 m/S 759 mmHg 52%
    17:00 -4°C° 0 mm 2 m/S 759 mmHg 53%
    18:00 -4°C° 0 mm 2 m/S 759 mmHg 56%
    19:00 -2°C° 0 mm 1 m/S 759 mmHg 60%
    20:00 -3°C° 0 mm 0 m/S 758 mmHg 63%
    21:00 -2°C° 0 mm 1 m/S 758 mmHg 67%
    22:00 -2°C° 0 mm 1 m/S 758 mmHg 70%
    23:00 -2°C° 0 mm 1 m/S 758 mmHg 73%
    Mehr zeigen